FW8439 Weather Reports


Display with metric or nautical units.
time (UTC)temp
F
wind
direction
speed
MPH
gust
MPH
rain 1hr
in
rain 24hr
in
rain mn
in
humidity
%
barometer
mb
20260504185503 68 221 1.0 4.0 0.00 0.00 0.00 50 1017.9
20260504185005 68 265 1.0 4.0 0.00 0.00 0.00 52 1017.9
20260504184506 67 249 1.0 4.0 0.00 0.00 0.00 52 1017.9
20260504184003 67 211 0.0 4.0 0.00 0.00 0.00 51 1017.9
20260504183502 69 251 2.0 6.0 0.00 0.00 0.00 48 1018.0
20260504183003 68 232 1.0 6.0 0.00 0.00 0.00 49 1018.0
20260504182502 68 242 0.0 4.0 0.00 0.00 0.00 49 1018.0
20260504182003 67 197 1.0 5.0 0.00 0.00 0.00 48 1018.0
20260504181504 67 242 1.0 6.0 0.00 0.00 0.00 46 1018.1
20260504181002 67 281 3.0 8.0 0.00 0.00 0.00 50 1018.0
20260504180504 68 214 1.0 8.0 0.00 0.00 0.00 47 1018.2
20260504180004 68 200 0.0 5.0 0.00 0.00 0.00 47 1018.2
20260504175503 67 267 1.0 5.0 0.00 0.00 0.00 50 1018.2
20260504175003 68 298 2.0 5.0 0.00 0.00 0.00 49 1018.3
20260504174503 68 252 2.0 4.0 0.00 0.00 0.00 52 1018.3
20260504174003 67 253 2.0 4.0 0.00 0.00 0.00 48 1018.3
20260504173504 67 251 1.0 4.0 0.00 0.00 0.00 48 1018.4
20260504173004 67 241 0.0 4.0 0.00 0.00 0.00 47 1018.4
20260504172503 66 276 1.0 7.0 0.00 0.00 0.00 50 1018.5
20260504172006 66 192 1.0 7.0 0.00 0.00 0.00 46 1018.5
20260504171507 65 290 2.0 7.0 0.00 0.00 0.00 46 1018.4
20260504171005 66 240 1.0 6.0 0.00 0.00 0.00 47 1018.5
20260504170504 66 302 2.0 5.0 0.00 0.00 0.00 48 1018.4
20260504151006 60 115 1.0 6.0 0.00 0.00 0.00 54 1019.8
20260504150504 60 202 2.0 8.0 0.00 0.00 0.00 55 1019.8
20260504141003 58 246 2.0 6.0 0.00 0.00 0.00 56 1019.7
20260504140503 58 298 2.0 6.0 0.00 0.00 0.00 53 1019.8
20260504130506 52 225 0.0 4.0 0.00 0.00 0.00 64 1018.9
20260504110510 38 288 0.0 1.0 0.00 0.00 0.00 88 1018.2
20260504100504 39 288 0.0 2.0 0.00 0.00 0.00 82 1018.0
20260504082006 32 288 0.0 0.0 0.00 0.00 0.00 89 1018.4
20260504081519 32 288 0.0 0.0 0.00 0.00 0.00 89 1018.3
20260504081008 32 288 0.0 0.0 0.00 0.00 0.00 89 1018.2
20260504080507 32 288 0.0 0.0 0.00 0.00 0.00 89 1018.3
20260504050504 34 288 0.0 0.0 0.00 0.00 0.00 83 1019.2
20260504050006 34 288 0.0 0.0 0.00 0.00 0.00 83 1019.2
20260504045506 35 288 0.0 0.0 0.00 0.00 0.00 82 1019.2
20260504045004 35 288 0.0 0.0 0.00 0.00 0.00 83 1019.1
20260504044509 34 288 0.0 0.0 0.00 0.00 0.00 83 1019.1
20260504044006 34 288 0.0 0.0 0.00 0.00 0.00 84 1019.1
20260504043506 34 288 0.0 0.0 0.00 0.00 0.00 84 1019.0
20260504043034 35 288 0.0 0.0 0.00 0.00 0.00 84 1019.0
20260504042505 35 288 0.0 0.0 0.00 0.00 0.00 83 1019.0
20260504042007 35 288 0.0 0.0 0.00 0.00 0.00 84 1019.0
20260504041519 35 288 0.0 0.0 0.00 0.00 0.00 83 1018.9
20260504041005 36 288 0.0 0.0 0.00 0.00 0.00 82 1019.0
20260504040506 36 288 0.0 0.0 0.00 0.00 0.00 81 1019.0
20260504040021 36 288 0.0 0.0 0.00 0.00 0.00 81 1018.9
20260504035506 36 288 0.0 0.0 0.00 0.00 0.00 81 1018.8
20260504035003 36 288 0.0 0.0 0.00 0.00 0.00 80 1018.9
20260504034516 36 288 0.0 0.0 0.00 0.00 0.00 80 1018.9
20260504034011 36 288 0.0 0.0 0.00 0.00 0.00 80 1018.8
20260504033506 36 288 0.0 0.0 0.00 0.00 0.00 81 1018.7
20260504033010 36 288 0.0 0.0 0.00 0.00 0.00 79 1018.6
20260504032508 36 288 0.0 0.0 0.00 0.00 0.00 79 1018.6
20260504032008 37 288 0.0 0.0 0.00 0.00 0.00 78 1018.5
20260504031510 37 288 0.0 0.0 0.00 0.00 0.00 79 1018.5
20260504031008 37 288 0.0 0.0 0.00 0.00 0.00 80 1018.5
20260504030508 37 288 0.0 0.0 0.00 0.00 0.00 78 1018.6
20260504030026 37 288 0.0 0.0 0.00 0.00 0.00 79 1018.7
20260504025510 37 288 0.0 0.0 0.00 0.00 0.00 79 1018.6
20260504025006 37 288 0.0 0.0 0.00 0.00 0.00 76 1018.6
20260504024524 37 288 0.0 0.0 0.00 0.00 0.00 78 1018.6
20260504024004 37 288 0.0 0.0 0.00 0.00 0.00 76 1018.8
20260504023507 38 288 0.0 0.0 0.00 0.00 0.00 75 1019.0
20260504023022 38 288 0.0 0.0 0.00 0.00 0.00 76 1019.1
20260504022507 38 288 0.0 0.0 0.00 0.00 0.00 75 1018.9
20260504022004 38 288 0.0 0.0 0.00 0.00 0.00 75 1018.9
20260504021521 38 288 0.0 0.0 0.00 0.00 0.00 73 1019.0
20260504021006 39 288 0.0 0.0 0.00 0.00 0.00 74 1018.9
20260504020503 38 288 0.0 0.0 0.00 0.00 0.00 73 1018.9
20260504020014 39 288 0.0 0.0 0.00 0.00 0.00 75 1018.7
20260504015510 39 288 0.0 2.0 0.00 0.00 0.00 73 1018.6
20260504015007 39 288 0.0 2.0 0.00 0.00 0.00 74 1018.6
20260504014514 39 288 0.0 1.0 0.00 0.00 0.00 73 1018.5
20260504014007 40 288 0.0 0.0 0.00 0.00 0.00 72 1018.4
20260504013507 40 288 0.0 0.0 0.00 0.00 0.00 70 1018.3
20260504013016 40 288 0.0 0.0 0.00 0.00 0.00 70 1018.4
20260504012507 40 288 0.0 0.0 0.00 0.00 0.00 70 1018.4
20260504012008 40 288 0.0 1.0 0.00 0.00 0.00 69 1018.3
20260504011526 41 288 0.0 1.0 0.00 0.00 0.00 68 1018.2
20260504011007 41 288 0.0 1.0 0.00 0.00 0.00 66 1018.2
20260504010507 42 288 0.0 1.0 0.00 0.00 0.00 65 1018.2
20260504010025 42 288 0.0 2.0 0.00 0.00 0.00 64 1018.2
20260504005509 43 288 0.0 2.0 0.00 0.00 0.00 66 1018.2
20260504005009 43 288 0.0 2.0 0.00 0.00 0.00 66 1018.1
20260504004524 43 288 0.0 2.0 0.00 0.00 0.00 63 1018.0
20260504004007 44 288 0.0 2.0 0.00 0.00 0.00 59 1018.1
20260504003507 45 288 0.0 2.0 0.00 0.00 0.00 59 1018.1
20260504003018 45 288 0.0 1.0 0.00 0.00 0.00 57 1018.1
20260504002506 45 288 0.0 1.0 0.00 0.00 0.00 61 1018.1
20260504002014 46 288 0.0 2.0 0.00 0.00 0.00 55 1018.0
20260504001516 46 288 0.0 2.0 0.00 0.00 0.00 57 1018.1
20260504001007 47 288 0.0 1.0 0.00 0.00 0.00 57 1018.0
20260504000508 47 288 0.0 2.0 0.00 0.00 0.00 57 1018.0
20260504000020 47 288 0.0 3.0 0.00 0.00 0.00 54 1018.0
20260503235508 47 288 0.0 3.0 0.00 0.00 0.00 57 1017.9
20260503235007 48 288 0.0 3.0 0.00 0.00 0.00 55 1017.9
20260503234519 48 348 0.0 2.0 0.00 0.00 0.00 54 1017.9
20260503234008 48 348 0.0 0.0 0.00 0.00 0.00 54 1017.9
20260503233510 48 348 0.0 0.0 0.00 0.00 0.00 52 1017.9
20260503233026 49 355 0.0 0.0 0.00 0.00 0.00 54 1017.9
20260503232508 49 273 0.0 0.0 0.00 0.00 0.00 53 1017.9
20260503232008 49 266 0.0 2.0 0.00 0.00 0.00 52 1017.9
20260503231524 49 266 0.0 3.0 0.00 0.00 0.00 54 1017.8
20260503231007 49 266 0.0 3.0 0.00 0.00 0.00 56 1017.7
20260503230507 50 227 1.0 3.0 0.00 0.00 0.00 52 1017.6
20260503230004 50 252 0.0 5.0 0.00 0.00 0.00 52 1017.6
20260503225504 50 18 0.0 5.0 0.00 0.00 0.00 49 1017.5
20260503225007 50 264 0.0 3.0 0.00 0.00 0.00 52 1017.6
20260503224504 50 265 0.0 9.0 0.00 0.00 0.00 51 1017.6
20260503224003 51 199 0.0 9.0 0.00 0.00 0.00 52 1017.7
20260503223503 51 278 1.0 4.0 0.00 0.00 0.00 51 1017.6
20260503223004 51 240 0.0 2.0 0.00 0.00 0.00 50 1017.6
20260503222503 51 240 1.0 2.0 0.00 0.00 0.00 50 1017.7
20260503222005 51 240 0.0 3.0 0.00 0.00 0.00 49 1017.7
20260503221515 51 240 1.0 4.0 0.00 0.00 0.00 50 1017.7
20260503221010 52 256 0.0 4.0 0.00 0.00 0.00 49 1017.7
20260503220504 52 292 2.0 4.0 0.00 0.00 0.00 48 1017.7
20260503220012 52 278 1.0 4.0 0.00 0.00 0.00 48 1017.7
20260503215507 52 239 0.0 4.0 0.00 0.00 0.00 48 1017.7
20260503215003 52 242 2.0 4.0 0.00 0.00 0.00 48 1017.7
20260503214529 52 232 1.0 4.0 0.00 0.00 0.00 46 1017.7
20260503214006 52 266 1.0 4.0 0.00 0.00 0.00 47 1017.7
20260503213509 52 286 0.0 7.0 0.00 0.00 0.00 44 1017.9
20260503213007 52 290 1.0 7.0 0.00 0.00 0.00 43 1017.9
20260503212503 52 246 2.0 7.0 0.00 0.00 0.00 46 1017.9
20260503212006 52 223 2.0 5.0 0.00 0.00 0.00 45 1018.0
20260503211513 53 255 1.0 6.0 0.00 0.00 0.00 43 1018.0
20260503211002 53 234 2.0 6.0 0.00 0.00 0.00 44 1018.1
20260503210507 53 236 1.0 6.0 0.00 0.00 0.00 39 1018.2
20260503210011 53 280 2.0 6.0 0.00 0.00 0.00 42 1018.2
20260503205504 53 284 2.0 6.0 0.00 0.00 0.00 43 1018.2
20260503205006 53 189 1.0 6.0 0.00 0.00 0.00 41 1018.4
20260503204507 53 205 3.0 7.0 0.00 0.00 0.00 43 1018.3
20260503204007 53 129 1.0 7.0 0.00 0.00 0.00 38 1018.3
20260503203503 53 211 3.0 7.0 0.00 0.00 0.00 42 1018.3
20260503203005 54 242 1.0 5.0 0.00 0.00 0.00 40 1018.5
20260503202510 54 213 1.0 8.0 0.00 0.00 0.00 36 1018.5
20260503202004 54 254 2.0 8.0 0.00 0.00 0.00 44 1018.5
20260503201512 54 232 2.0 6.0 0.00 0.00 0.00 43 1018.6
20260503201011 54 246 3.0 6.0 0.00 0.00 0.00 43 1018.6
20260503200503 54 299 1.0 6.0 0.00 0.00 0.00 42 1018.7
20260503200012 54 284 1.0 6.0 0.00 0.00 0.00 41 1018.8
20260503195505 54 191 1.0 4.0 0.00 0.00 0.00 42 1018.7
20260503195010 54 267 1.0 6.0 0.00 0.00 0.00 37 1018.7
20260503194519 54 236 2.0 6.0 0.00 0.00 0.00 43 1018.7
20260503194007 54 122 1.0 6.0 0.00 0.00 0.00 39 1018.8
20260503193508 55 309 3.0 6.0 0.00 0.00 0.00 40 1018.8
20260503193018 55 259 2.0 6.0 0.00 0.00 0.00 42 1018.9
20260503192504 55 226 2.0 6.0 0.00 0.00 0.00 40 1018.9
20260503192010 55 222 2.0 4.0 0.00 0.00 0.00 39 1018.9
20260503191517 55 213 1.0 6.0 0.00 0.00 0.00 42 1018.9
20260503191010 56 209 2.0 6.0 0.00 0.00 0.00 37 1019.0
20260503190506 56 219 1.0 5.0 0.00 0.00 0.00 35 1019.0
20260503190014 56 227 2.0 7.0 0.00 0.00 0.00 40 1019.1